Gulfport, MS

5:22 PM CST on January 16, 2017 (GMT -0600)
Gulfport-Biloxi Regional

Weather History for KGPT - August, 2013

Change the Weather History Date:

Sunday, August 18, 2013

  Actual Average Record
Temperature  
Mean Temperature 76 °F -  
Max Temperature 82 °F 91 °F 98 °F (1981)
Min Temperature 71 °F 74 °F 66 °F (2004)
Cooling Degree Days 12    
Growing Degree Days 26 (Base 50)    
Moisture  
Dew Point 73 °F    
Average Humidity 91    
Maximum Humidity 100    
Minimum Humidity 74    
Precipitation  
Precipitation 6.12 in - - ()
Sea Level Pressure  
Sea Level Pressure 29.95 in    
Wind  
Wind Speed 9 mph (NE)    
Max Wind Speed 32 mph    
Max Gust Speed 40 mph    
Visibility 6 miles    
Events Rain , Thunderstorm    
Averages and records for this station are not official NWS values.
T = Trace of Precipitation, MM = Missing Value Source: NWS Daily Summary

Daily Weather History Graph

Daily Weather History Graph

Search for Another Location

Airport or City:

Trip Planner

Search our weather history database for the weather conditions in past years. The results will help you decide how hot, cold, wet, or windy it might be!

Date:

Astronomy

Aug. 18, 2013 Rise Set
Actual Time 6:25 AM CDT 7:34 PM CDT
Civil Twilight 5:59 AM CDT 7:59 PM CDT
Nautical Twilight 5:30 AM CDT 8:29 PM CDT
Astronomical Twilight 4:59 AM CDT 9:00 PM CDT
Moon 5:36 PM CDT (8/18) 3:40 AM CDT (8/18)
Length of Visible Light 13h 59m
Length of Day
13h 09m
Waxing Gibbous, 92% of the Moon is Illuminated
Aug 18
Waxing Gibbous
Aug 20
Full
Aug 28
Last Quarter
Sep 5
New
Sep 12
First Quarter

Hourly Weather History & Observations

Time (CDT) Temp. Heat Index Dew Point Humidity Pressure Visibility Wind Dir Wind Speed Gust Speed Precip Events Conditions
12:03 AM 73.4 °F - 71.6 °F 94% 29.95 in 3.0 mi NE 8.1 mph - 0.01 in Rain Light Rain
12:26 AM 73.4 °F - 71.6 °F 94% 29.95 in 3.0 mi NE 4.6 mph - 0.04 in Rain Heavy Rain
12:43 AM 73.4 °F - 71.6 °F 94% 29.95 in 6.0 mi NE 5.8 mph - 0.06 in Rain Light Rain
12:53 AM 73.9 °F - 72.0 °F 93% 29.95 in 10.0 mi NE 4.6 mph - 0.06 in   Overcast
1:14 AM 73.4 °F - 71.6 °F 94% 29.94 in 7.0 mi NNW 4.6 mph - 0.01 in Rain Light Rain
1:53 AM 73.9 °F - 72.0 °F 93% 29.94 in 2.0 mi NE 9.2 mph - 0.06 in Rain Rain
2:06 AM 73.4 °F - 71.6 °F 94% 29.94 in 4.0 mi NE 9.2 mph - 0.01 in Rain Light Rain
2:37 AM 73.4 °F - 71.6 °F 94% 29.93 in 10.0 mi NE 12.7 mph - 0.01 in Rain Light Rain
2:53 AM 73.9 °F - 72.0 °F 93% 29.93 in 6.0 mi NE 12.7 mph - 0.02 in Rain Light Rain
3:53 AM 73.9 °F - 72.0 °F 93% 29.94 in 10.0 mi NNE 8.1 mph - 0.01 in   Overcast
4:00 AM 73.4 °F - 71.6 °F 94% 29.93 in 10.0 mi NE 11.5 mph - N/A Thunderstorm Overcast
4:15 AM 73.4 °F - 71.6 °F 94% 29.92 in 10.0 mi NE 9.2 mph - N/A   Overcast
4:22 AM 73.4 °F - 71.6 °F 94% 29.92 in 10.0 mi NE 10.4 mph - N/A Thunderstorm Overcast
4:46 AM 73.4 °F - 71.6 °F 94% 29.92 in 10.0 mi NE 10.4 mph - N/A   Overcast
4:53 AM 73.9 °F - 72.0 °F 93% 29.92 in 10.0 mi NE 6.9 mph - N/A   Overcast
5:29 AM 73.4 °F - 71.6 °F 94% 29.94 in 10.0 mi NNE 10.4 mph - 0.00 in Rain Light Rain
5:36 AM 73.4 °F - 71.6 °F 94% 29.93 in 6.0 mi NNE 10.4 mph - 0.01 in Rain Light Rain
5:53 AM 73.0 °F - 71.1 °F 93% 29.94 in 9.0 mi NNE 5.8 mph - 0.01 in Rain , Thunderstorm Light Thunderstorms and Rain
6:41 AM 73.4 °F - 71.6 °F 94% 29.94 in 8.0 mi NNE 10.4 mph - 0.02 in Rain , Thunderstorm Light Thunderstorms and Rain
6:53 AM 73.0 °F - 71.1 °F 93% 29.94 in 9.0 mi North 10.4 mph - 0.03 in Rain , Thunderstorm Light Thunderstorms and Rain
7:23 AM 71.6 °F - 69.8 °F 94% 29.95 in 1.8 mi North 10.4 mph - 0.18 in Rain Heavy Rain
7:33 AM 71.6 °F - 69.8 °F 94% 29.95 in 1.5 mi NE 9.2 mph - 0.33 in Rain Heavy Rain
7:53 AM 72.0 °F - 70.0 °F 93% 29.92 in 2.0 mi NNE 6.9 mph 16.1 mph 0.64 in Rain Rain
7:55 AM 71.6 °F - 69.8 °F 94% 29.92 in 1.8 mi North 9.2 mph - 0.01 in Rain Heavy Rain
8:06 AM 71.6 °F - 69.8 °F 94% 29.93 in 3.0 mi NNE 11.5 mph - 0.05 in Rain Light Rain
8:35 AM 73.4 °F - 69.8 °F 88% 29.94 in 10.0 mi ENE 11.5 mph - 0.06 in Rain Light Rain
8:53 AM 73.0 °F - 71.1 °F 93% 29.95 in 7.0 mi NE 9.2 mph - 0.07 in Rain Light Rain
9:10 AM 73.4 °F - 71.6 °F 94% 29.95 in 10.0 mi North 6.9 mph - 0.02 in Rain Light Rain
9:53 AM 73.9 °F - 72.0 °F 93% 29.96 in 10.0 mi North 3.5 mph - 0.05 in Rain Light Rain
10:53 AM 78.1 °F - 75.0 °F 90% 29.97 in 3.0 mi ESE 13.8 mph - 0.04 in Rain Light Rain
11:12 AM 77.0 °F - 75.2 °F 94% 29.96 in 3.0 mi East 13.8 mph - 0.01 in Rain Light Rain
11:53 AM 77.0 °F - 75.0 °F 94% 29.96 in 2.0 mi SE 13.8 mph - 0.05 in Rain Light Rain
11:55 AM 78.8 °F - 75.2 °F 89% 29.97 in 1.8 mi SE 13.8 mph - 0.00 in Rain Light Rain
12:12 PM 78.8 °F - 75.2 °F 89% 29.96 in 2.5 mi SE 10.4 mph - 0.01 in Rain Light Rain
12:17 PM 78.8 °F - 75.2 °F 89% 29.96 in 2.0 mi SE 15.0 mph 23.0 mph 0.01 in Rain Light Rain
12:19 PM 78.8 °F - 75.2 °F 89% 29.96 in 2.0 mi ESE 15.0 mph 23.0 mph 0.01 in Rain , Thunderstorm Light Thunderstorms and Rain
12:51 PM 77.0 °F - 75.2 °F 94% 29.95 in 0.2 mi SE 32.2 mph 39.1 mph 0.31 in Rain , Thunderstorm Heavy Thunderstorms and Rain
12:53 PM 75.9 °F - 73.9 °F 94% 29.94 in 0.2 mi SE 32.2 mph 40.3 mph 0.38 in Rain , Thunderstorm Heavy Thunderstorms and Rain
1:53 PM 75.9 °F - 75.9 °F 100% 29.94 in 0.2 mi Variable 6.9 mph - 4.65 in Rain , Thunderstorm Heavy Thunderstorms and Rain
1:58 PM 77.0 °F - 77.0 °F 100% 29.94 in 6.0 mi Variable 3.5 mph - 0.02 in Rain Rain
2:08 PM 78.8 °F - 75.2 °F 89% 29.94 in 6.0 mi Calm Calm - 0.04 in Rain Light Rain
2:15 PM 78.8 °F - 75.2 °F 89% 29.94 in 6.0 mi South 3.5 mph - 0.04 in Rain Light Rain
2:29 PM 80.6 °F 86.2 °F 75.2 °F 84% 29.95 in 10.0 mi SSE 10.4 mph - 0.04 in   Overcast
2:53 PM 79.0 °F - 75.0 °F 88% 29.93 in 7.0 mi South 9.2 mph - 0.04 in Rain Light Rain
3:53 PM 82.0 °F 87.9 °F 73.9 °F 76% 29.92 in 10.0 mi South 9.2 mph - 0.01 in   Clear
4:53 PM 81.0 °F 86.7 °F 75.0 °F 82% 29.95 in 10.0 mi WSW 5.8 mph - N/A   Mostly Cloudy
5:17 PM 82.4 °F 88.2 °F 73.4 °F 74% 29.95 in 10.0 mi Variable 6.9 mph - N/A   Partly Cloudy
5:53 PM 81.0 °F 86.2 °F 73.9 °F 79% 29.95 in 10.0 mi Variable 3.5 mph - N/A   Partly Cloudy
6:53 PM 81.0 °F 86.2 °F 73.9 °F 79% 29.95 in 10.0 mi West 3.5 mph - N/A   Clear
7:53 PM 79.0 °F - 73.9 °F 84% 29.97 in 10.0 mi Calm Calm - N/A   Partly Cloudy
8:53 PM 77.0 °F - 73.9 °F 90% 29.98 in 10.0 mi Calm Calm - N/A   Partly Cloudy
9:53 PM 75.9 °F - 73.9 °F 94% 29.99 in 10.0 mi Calm Calm - N/A   Partly Cloudy
10:53 PM 75.0 °F - 73.0 °F 94% 30.00 in 10.0 mi West 3.5 mph - N/A   Clear
11:53 PM 73.9 °F - 72.0 °F 93% 30.00 in 10.0 mi Calm Calm - N/A   Clear